Location: Olsztyn
(53.7767°N, 20.4765°E)
Time: 03:19:57
(UTC+01:00)

Explorer 7 - All Passes

Search period start: 23 January 2022 00:00
Search period end: 02 February 2022 00:00
Orbit: 483 x 674 km, 50.3° (Epoch: 22 January)

Date Brightness Start Highest point End Pass type
(mag) Time Alt. Az. Time Alt. Az. Time Alt. Az.
23 Jan - 10:12:56 10° SSW 10:16:01 20° SE 10:19:13 10° E daylight
23 Jan - 11:51:38 10° WSW 11:55:47 46° SSE 12:00:11 10° E daylight
23 Jan - 13:31:36 10° W 13:35:59 55° S 13:40:35 10° ESE daylight
23 Jan - 15:11:58 10° W 15:16:05 33° SSW 15:20:22 10° SE daylight
23 Jan - 16:53:56 10° WSW 16:55:40 12° SW 16:57:25 10° SSW visible
24 Jan - 10:16:08 10° SSW 10:19:37 26° SSE 10:23:18 10° E daylight
24 Jan - 11:55:21 10° WSW 11:59:32 51° S 12:04:00 10° E daylight
24 Jan - 13:35:26 10° W 13:39:45 51° S 13:44:20 10° ESE daylight
24 Jan - 15:15:55 10° W 15:19:46 26° SSW 15:23:44 10° SSE daylight
25 Jan - 08:43:12 10° SE 08:43:51 10° SE 08:44:31 10° SE daylight
25 Jan - 10:19:32 10° SW 10:23:17 32° SSE 10:27:15 10° E daylight
25 Jan - 11:59:05 10° WSW 12:03:19 55° S 12:07:49 10° E daylight
25 Jan - 13:39:16 10° W 13:43:32 45° SSW 13:48:01 10° SE daylight
25 Jan - 15:20:00 10° W 15:23:25 20° SW 15:26:54 10° SSE daylight
26 Jan - 08:45:03 10° S 08:47:22 15° SE 08:49:46 10° ESE daylight
26 Jan - 10:23:04 10° SW 10:26:59 39° SSE 10:31:08 10° E daylight
26 Jan - 12:02:52 10° WSW 12:07:06 56° S 12:11:37 10° ESE daylight
26 Jan - 13:43:07 10° W 13:47:16 38° SSW 13:51:37 10° SE daylight
26 Jan - 15:24:19 10° WSW 15:26:59 15° SW 15:29:43 10° S daylight
27 Jan - 08:47:56 10° SSW 08:50:56 20° SE 08:54:04 10° E daylight
27 Jan - 10:26:42 10° WSW 10:30:42 46° SSE 10:34:59 10° E daylight
27 Jan - 12:06:40 10° W 12:10:53 54° S 12:15:22 10° ESE daylight
27 Jan - 13:47:01 10° W 13:50:58 31° SSW 13:55:06 10° SE daylight
27 Jan - 15:29:27 10° WSW 15:30:31 11° SW 15:31:35 10° SSW daylight
28 Jan - 08:51:09 10° SSW 08:54:33 26° SSE 08:58:07 10° E daylight
28 Jan - 10:30:24 10° WSW 10:34:28 51° S 10:38:48 10° E daylight
28 Jan - 12:10:29 10° W 12:14:40 49° S 12:19:06 10° ESE daylight
28 Jan - 13:50:59 10° W 13:54:38 25° SSW 13:58:25 10° SSE daylight
29 Jan - 07:18:03 10° SSE 07:18:46 10° SE 07:19:29 10° SE daylight
29 Jan - 08:54:34 10° SW 08:58:12 32° SSE 09:02:03 10° E daylight
29 Jan - 10:34:09 10° WSW 10:38:14 54° S 10:42:36 10° E daylight
29 Jan - 12:14:18 10° W 12:18:24 43° SSW 12:22:45 10° SE daylight
29 Jan - 13:55:06 10° W 13:58:15 19° SW 14:01:30 10° S daylight
30 Jan - 07:20:01 10° S 07:22:17 15° SE 07:24:38 10° ESE daylight
30 Jan - 08:58:07 10° SW 09:01:54 39° SSE 09:05:56 10° E daylight
30 Jan - 10:37:55 10° WSW 10:42:00 54° S 10:46:22 10° ESE daylight
30 Jan - 12:18:09 10° W 12:22:08 36° SSW 12:26:20 10° SE daylight
30 Jan - 13:59:31 10° WSW 14:01:49 14° SW 14:04:10 10° S daylight
31 Jan - 07:22:55 10° SSW 07:25:51 20° SE 07:28:54 10° E daylight
31 Jan - 09:01:45 10° WSW 09:05:38 45° SSE 09:09:46 10° E daylight
31 Jan - 10:41:42 10° W 10:45:47 52° S 10:50:08 10° ESE daylight
31 Jan - 12:22:04 10° W 12:25:49 29° SSW 12:29:46 10° SSE daylight
01 Feb - 07:26:09 10° SSW 07:29:28 26° SSE 07:32:56 10° E daylight
01 Feb - 09:05:27 10° WSW 09:09:23 51° S 09:13:34 10° E daylight
01 Feb - 10:45:31 10° W 10:49:32 47° SSW 10:53:50 10° ESE daylight
01 Feb - 12:26:03 10° W 12:29:28 23° SSW 12:33:02 10° SSE daylight
